Weather History for Poplar Bluff, MO

Change the Weather History Date:

Sunday, December 2, 2012

  Actual Average Record
Temperature  
Mean Temperature 64 °F -  
Max Temperature 69 °F 51 °F 73 °F (1950)
Min Temperature 59 °F 30 °F 9 °F (1929)
Degree Days  
Heating Degree Days 1    
Growing Degree Days 14 (Base 50)    
Moisture  
Dew Point 58 °F    
Average Humidity 79    
Maximum Humidity 93    
Minimum Humidity 60    
Precipitation  
Precipitation 0.00 in - - ()
Sea Level Pressure  
Sea Level Pressure 30.07 in    
Wind  
Wind Speed 12 mph (SSW)    
Max Wind Speed 18 mph    
Max Gust Speed 25 mph    
Visibility 9 miles    
Events      
Averages and records for this station are not official NWS values.
T = Trace of Precipitation, MM = Missing Value Source: NWS Daily Summary

Daily Weather History Graph

Daily Weather History Graph

Search for Another Location

Airport:

Trip Planner

Search our weather history database for the weather conditions in past years. The results will help you decide how hot, cold, wet, or windy it might be!

Date:

Astronomy

Dec. 02, 2012 Rise Set
Actual Time 6:56 AM CST 4:45 PM CST
Civil Twilight 6:28 AM CST 5:13 PM CST
Nautical Twilight 5:56 AM CST 5:45 PM CST
Astronomical Twilight 5:24 AM CST 6:16 PM CST
Moon 8:30 PM CST (12/2) 9:48 AM CST (12/2)
Length of Visible Light 10h 45m
Length of Day
9h 48m
Waning Gibbous, 85% of the Moon is Illuminated
Dec 2
Waning Gibbous
Dec 6
Last Quarter
Dec 13
New
Dec 19
First Quarter
Dec 28
Full

Hourly Weather History & Observations

Time (CST) Temp. Dew Point Humidity Pressure Visibility Wind Dir Wind Speed Gust Speed Precip Events Conditions
12:53 AM 62.1 °F 48.0 °F 60% 30.06 in 10.0 mi South 12.7 mph 18.4 mph N/A   Mostly Cloudy
1:53 AM 59.0 °F 48.0 °F 67% 30.06 in 10.0 mi South 10.4 mph - N/A   Partly Cloudy
2:53 AM 59.0 °F 48.9 °F 69% 30.05 in 10.0 mi South 11.5 mph - N/A   Partly Cloudy
3:46 AM 59.0 °F 51.8 °F 77% 30.05 in 10.0 mi SSW 11.5 mph - N/A   Mostly Cloudy
3:53 AM 59.0 °F 51.1 °F 75% 30.04 in 10.0 mi South 12.7 mph - N/A   Overcast
4:53 AM 61.0 °F 52.0 °F 72% 30.05 in 10.0 mi South 12.7 mph 20.7 mph N/A   Overcast
5:53 AM 62.1 °F 54.0 °F 75% 30.05 in 10.0 mi SSW 13.8 mph - N/A   Overcast
6:53 AM 62.1 °F 55.0 °F 78% 30.07 in 10.0 mi SSW 10.4 mph - N/A   Overcast
7:53 AM 64.0 °F 57.9 °F 80% 30.09 in 10.0 mi SSW 16.1 mph 23.0 mph N/A   Overcast
8:25 AM 64.4 °F 57.2 °F 77% 30.11 in 10.0 mi SW 16.1 mph 23.0 mph N/A   Overcast
8:53 AM 64.0 °F 57.9 °F 80% 30.11 in 10.0 mi SSW 13.8 mph - N/A   Overcast
9:53 AM 64.0 °F 59.0 °F 84% 30.12 in 9.0 mi SSW 16.1 mph 21.9 mph N/A   Overcast
10:03 AM 64.4 °F 59.0 °F 83% 30.12 in 8.0 mi SSW 16.1 mph - N/A   Overcast
10:53 AM 64.0 °F 60.1 °F 87% 30.11 in 7.0 mi SSW 13.8 mph - N/A   Overcast
11:53 AM 64.9 °F 60.1 °F 84% 30.09 in 6.0 mi SSW 11.5 mph - N/A   Haze
12:19 PM 66.2 °F 60.8 °F 83% 30.09 in 7.0 mi SW 9.2 mph - N/A   Overcast
12:53 PM 66.0 °F 61.0 °F 84% 30.06 in 8.0 mi South 13.8 mph - N/A   Overcast
1:42 PM 69.8 °F 60.8 °F 73% 30.05 in 9.0 mi SSW 18.4 mph 25.3 mph N/A   Overcast
1:53 PM 69.1 °F 61.0 °F 75% 30.05 in 9.0 mi South 15.0 mph 25.3 mph N/A   Overcast
3:04 PM 69.8 °F 60.8 °F 73% 30.04 in 10.0 mi SSW 13.8 mph 23.0 mph N/A   Mostly Cloudy
3:21 PM 69.8 °F 60.8 °F 73% 30.04 in 10.0 mi South 12.7 mph - N/A   Scattered Clouds
3:53 PM 69.1 °F 61.0 °F 75% 30.04 in 10.0 mi SSW 10.4 mph - N/A   Mostly Cloudy
4:53 PM 68.0 °F 60.1 °F 76% 30.04 in 10.0 mi South 6.9 mph - N/A   Overcast
5:18 PM 66.2 °F 60.8 °F 83% 30.05 in 10.0 mi South 6.9 mph - N/A   Mostly Cloudy
6:51 PM 64.4 °F 60.8 °F 88% 30.06 in 10.0 mi South 9.2 mph - N/A   Mostly Cloudy
6:53 PM 66.0 °F 60.1 °F 81% 30.06 in 10.0 mi South 8.1 mph - N/A   Mostly Cloudy
7:06 PM 66.2 °F 60.8 °F 83% 30.06 in 10.0 mi South 9.2 mph - N/A   Overcast
7:53 PM 64.9 °F 60.1 °F 84% 30.06 in 10.0 mi South 9.2 mph - N/A   Clear
8:53 PM 64.0 °F 60.1 °F 87% 30.06 in 10.0 mi South 10.4 mph - N/A   Partly Cloudy
9:53 PM 64.0 °F 60.1 °F 87% 30.06 in 10.0 mi South 8.1 mph - N/A   Scattered Clouds
10:53 PM 62.1 °F 59.0 °F 90% 30.07 in 9.0 mi SSW 8.1 mph - N/A   Clear
11:53 PM 60.1 °F 57.9 °F 93% 30.08 in 8.0 mi SSW 5.8 mph - N/A   Clear